Home   Weather   Playa del Carmen   Past weeks
Flag for Mexico

Past Weather in Playa del Carmen, Quintana Roo, Mexico — Yesterday and Last 2 Weeks

Now
86 °F

Broken clouds.


Feels Like: 97 °F
Forecast: 88 / 81 °F
Wind: 8 mph from Southwest

Location: Cozumel Civ / Mil

Current Time: Oct 18, 2019 at 12:03:19 pm

Latest Report: Oct 18, 2019 at 10:49 am


Visibility: 8 mi

Pressure: 29.86 "Hg

Humidity: 75%

Dew Point: 77 °F

Location of Playa del CarmenLocation

Past Weather in Playa del Carmen — Graph

°F

Playa del Carmen Temperature Yesterday

Maximum temperature yesterday: 88 °F (at 11:41 am)
Minimum temperature yesterday: 77 °F (at 12:45 am)
Average temperature yesterday: 82 °F

High & Low Weather Summary for the Past Weeks

 TemperatureHumidityPressure
High90 °F (Oct 5, 11:41 am)100% (Oct 3, 10:46 pm)29.96 "Hg (Oct 3, 10:46 pm)
Low73 °F (Oct 9, 11:46 pm)58% (Oct 6, 4:45 pm)29.76 "Hg (Oct 6, 4:45 pm)
Average82 °F86%29.87 "Hg
* Reported Oct 3 10:42 am — Oct 18 10:49 am, Playa del Carmen. Weather by CustomWeather, © 2019

Note: Actual official high and low records may vary slightly from our data, if they occured in-between our weather recording intervals... More about our weather records

Advertising

Playa del Carmen Weather History for the Previous 24 Hours

Scroll right to see more
 ConditionsComfort  
Time TempWeatherWind HumidityBarometerVisibility
10:49 am
Fri, Oct 18
86 °FBroken clouds.8 mph75%29.86 "Hg8 mi
9:41 am86 °FBroken clouds.7 mph75%29.89 "Hg8 mi
8:49 am86 °FBroken clouds.6 mph75%29.87 "Hg7 mi
7:45 am82 °FPartly sunny.5 mph84%29.86 "Hg7 mi
6:49 am81 °FPassing clouds.6 mph84%29.87 "Hg7 mi
5:48 am82 °FPassing clouds.No wind84%29.82 "Hg7 mi
4:45 am82 °FPassing clouds.No wind79%29.80 "Hg7 mi
3:42 am82 °FPassing clouds.No wind84%29.81 "Hg7 mi
2:43 am82 °FPassing clouds.No wind84%29.81 "Hg7 mi
1:45 am81 °FPassing clouds.No wind89%29.83 "Hg7 mi
12:48 am81 °FPassing clouds.No wind89%29.86 "Hg7 mi
11:47 pm
Thu, Oct 17
81 °FPassing clouds.No wind89%29.88 "Hg7 mi
10:43 pm79 °FPassing clouds.No wind94%29.88 "Hg7 mi
9:47 pm79 °FPassing clouds.No wind94%29.90 "Hg7 mi
8:40 pm79 °FPassing clouds.3 mph89%29.87 "Hg7 mi
7:40 pm81 °FPassing clouds.5 mph89%29.86 "Hg7 mi
6:41 pm82 °FPartly sunny.5 mph84%29.86 "Hg7 mi
5:44 pm84 °FScattered clouds.8 mph79%29.85 "Hg8 mi
4:43 pm86 °FBroken clouds.7 mph75%29.84 "Hg8 mi
3:41 pm88 °FBroken clouds.9 mph75%29.85 "Hg8 mi
2:40 pm88 °FBroken clouds.8 mph70%29.84 "Hg8 mi
1:42 pm86 °FBroken clouds.14 mph84%29.87 "Hg8 mi
12:45 pm88 °FBroken clouds.12 mph70%29.90 "Hg8 mi
Weather by CustomWeather, © 2019

See weather overview